This is the latest recevied weather packets stored in our database for station/object SR2CPA-13. If no packets are shown the sender has not sent any weather packets the latest 10 day(s).
| Time | Temp. | Humidity | Pressure | Rain* | Wind** | Luminosity | Snow |
|---|---|---|---|---|---|---|---|
| 1777914775 | 21.11° C | 58% | 0 hPa | 0 mm | - | - | - |
| 1777914155 | 21.11° C | 57% | 0 hPa | 0 mm | - | - | - |
| 1777913555 | 21.11° C | 57% | 0 hPa | 0 mm | - | - | - |
| 1777912935 | 21.67° C | 57% | 0 hPa | 0 mm | - | - | - |
| 1777912335 | 21.67° C | 54% | 0 hPa | 0 mm | - | - | - |
| 1777911715 | 21.67° C | 56% | 0 hPa | 0 mm | - | - | - |
| 1777911115 | 21.67° C | 54% | 0 hPa | 0 mm | - | - | - |
| 1777910515 | 21.67° C | 54% | 0 hPa | 0 mm | - | - | - |
| 1777909916 | 22.22° C | 53% | 0 hPa | 0 mm | - | - | - |
| 1777909315 | 22.22° C | 52% | 0 hPa | 0 mm | - | - | - |
| 1777908695 | 22.78° C | 53% | 0 hPa | 0 mm | - | - | - |
| 1777908095 | 22.78° C | 53% | 0 hPa | 0 mm | - | - | - |
| 1777906875 | 22.22° C | 54% | 0 hPa | 0 mm | - | - | - |
| 1777906255 | 22.22° C | 56% | 0 hPa | 0 mm | - | - | - |
| 1777905035 | 22.22° C | 56% | 0 hPa | 0 mm | - | - | - |
| 1777904435 | 23.33° C | 55% | 0 hPa | 0 mm | - | - | - |
| 1777903835 | 22.22° C | 54% | 0 hPa | 0 mm | - | - | - |
| 1777903235 | 21.67° C | 57% | 0 hPa | 0 mm | - | - | - |
| 1777902635 | 21.67° C | 57% | 0 hPa | 0 mm | - | - | - |
| 1777902035 | 21.67° C | 56% | 0 hPa | 0 mm | - | - | - |
| 1777901416 | 21.67° C | 57% | 0 hPa | 0 mm | - | - | - |
| 1777900815 | 21.67° C | 57% | 0 hPa | 0 mm | - | - | - |
| 1777900196 | 21.67° C | 56% | 0 hPa | 0 mm | - | - | - |
| 1777899595 | 22.22° C | 57% | 0 hPa | 0 mm | - | - | - |
| 1777898975 | 22.22° C | 55% | 0 hPa | 0 mm | - | - | - |
* Rain latest hour (hover to see other rain measurements)
** Current wind speed in m/s (hover to see current wind gust speed)